Tracking 19847 objects as of 18-Sep-2019
HD Live streaming from Space Station
objects crossing your sky now

FENGYUN 1C DEB

Track FENGYUN 1C DEB now!
10-day predictions


NORAD ID: 31094
Int'l Code: 1999-025BGQ
Perigee: 842.7 km
Apogee: 1,008.5 km
Inclination: 99.0 °
Period: 103.4 minutes
Semi major axis: 7296 km
RCS: 0.0135 m2 (small)
Launch date: May 10, 1999
Source: People's Republic of China (PRC)
Launch site: Taiyaun Space Center, China (TSC)

Note: This is SATELLITE DEBRIS
aabbcc
Your satellite tracking list
Your tracking list is empty




NASA's NSSDC Master Catalog

Two Line Element Set (TLE):
1 31094U 99025BGQ 19259.70482938 +.00000402 +00000-0 +32565-3 0  9999
2 31094 099.0163 159.0941 0113622 192.8991 166.9257 13.92915245638239
Source of the keplerian elements: AFSPC